Regional Weather Roundup
Issued by NWS

Home | Current Version | Previous Version | Text Only | Print | Product List | Glossary On
Versions: 1 2 3 4 5 6 7 8 9 10 11 12 13 14 15 16 17 18 19 20 21 22 23 24 25 26 27 28 29 30 31 32 33 34 35 36 37 38 39 40 41 42 43 44 45 46 47 48 49 50
000
ASUS45 KCYS 021410
RWRWY

WYOMING REGIONAL WEATHER ROUNDUP
NATIONAL WEATHER SERVICE CHEYENNE WY
800 AM MDT THU OCT 02 2014

NOTE:  "FAIR" INDICATES FEW OR NO CLOUDS BELOW 12,000 FEET
WITH NO SIGNIFICANT WEATHER AND/OR OBSTRUCTIONS TO VISIBILITY.

WYZ001-021500-
YELLOWSTONE NATIONAL PARK

CITY           SKY/WX    TMP DP  RH WIND       PRES   REMARKS
LK YELLOWSTONE   N/A     30  26  85 VRB7      30.18S WCI  23
W YELLOWSTONE  NOT AVBL

$$
WYZ002>013-054>058-071-098>099-021500-
NORTHERN WYOMING

CITY           SKY/WX    TMP DP  RH WIND       PRES   REMARKS
JACKSON        CLEAR     36  30  80 MISG      30.21S
CODY           PTCLDY    48  28  46 W17G30    30.03S
GREYBULL       MOCLDY    39  36  89 SE5       30.05S
WORLAND        CLEAR     37  33  85 CALM      30.05F
SHERIDAN       CLEAR     34  29  82 S3        30.02S
BUFFALO        CLEAR     43  27  53 NW13      30.03R
GILLETTE       CLEAR     42  33  70 SW13      30.00S
HULETT         FAIR      41  36  81 SW7       30.01
NEWCASTLE      FAIR      34  34 100 SE6       30.05  WCI  29

$$
WYZ014>020-022>026-101>103-021500-
CENTRAL WYOMING

CITY           SKY/WX    TMP DP  RH WIND       PRES   REMARKS
BIG PINEY      PTCLDY    26  23  88 N3        30.23S
PINEDALE       MOSUNNY   28  28 100 CALM      30.24R
DUBOIS         FAIR      34  23  64 N14       30.12F WCI  24
LANDER         PTCLDY    35  28  75 CALM      30.10S
RIVERTON       PTCLDY    37  27  67 W13       30.11S WCI  29
CASPER         CLEAR     38  32  79 SW14      30.09S WCI  30
DOUGLAS        SUNNY     34  32  92 CALM      30.09S

$$
WYZ021-027>030-104>119-021500-
SOUTHERN WYOMING

CITY           SKY/WX    TMP DP  RH WIND       PRES   REMARKS
EVANSTON       PTCLDY    31  27  85 SW9       30.28F WCI  23
KEMMERER       MOSUNNY   32  28  86 W10       30.26S WCI  24
FORT BRIDGER   FAIR      35  29  79 SW9       30.29S WCI  28
ROCK SPRINGS   CLEAR     35  27  72 W16       30.24R WCI  25
DIXON          FAIR      30  28  94 CALM      30.30R
RAWLINS        CLEAR     34  28  79 W22G29    30.17F WCI  22
SARATOGA       FAIR      34  30  86 S8        30.23R WCI  27
LARAMIE        MOSUNNY   29  28  96 E3        30.16R FOG
CHEYENNE       SUNNY     39  28  64 W8        30.13R WCI  33
TORRINGTON     SUNNY     37  36  96 CALM      30.09R
PINE BLUFFS    FAIR      37  34  87 NW6       30.12S WCI  33

$$



USA.gov is the U.S. government's official web portal to all federal, state and local government web resources and services.